Year,Month,Day,Hour,Minute,Value (Times are PST for temperature in C)
2016,10,23,00,00,8.70
2016,10,23,00,01,8.70
2016,10,23,00,02,8.80
2016,10,23,00,03,8.80
2016,10,23,00,04,8.80
2016,10,23,00,05,8.80
2016,10,23,00,06,8.80
2016,10,23,00,07,8.80
2016,10,23,00,08,8.80
2016,10,23,00,09,8.80
2016,10,23,00,10,8.80
2016,10,23,00,11,8.80
2016,10,23,00,12,8.80
2016,10,23,00,13,8.80
2016,10,23,00,14,8.90
2016,10,23,00,15,8.90
2016,10,23,00,16,8.90
2016,10,23,00,17,8.90
2016,10,23,00,18,8.90
2016,10,23,00,19,8.90
2016,10,23,00,20,9.00
2016,10,23,00,21,9.00
2016,10,23,00,22,9.00
2016,10,23,00,23,9.10
2016,10,23,00,24,9.10
2016,10,23,00,25,9.10
2016,10,23,00,26,9.10
2016,10,23,00,27,9.20
2016,10,23,00,28,9.20
2016,10,23,00,29,9.20
2016,10,23,00,30,9.20
2016,10,23,00,31,9.20
2016,10,23,00,32,9.20
2016,10,23,00,33,9.20
2016,10,23,00,34,9.30
2016,10,23,00,35,9.30
2016,10,23,00,36,9.40
2016,10,23,00,37,9.50
2016,10,23,00,38,9.60
2016,10,23,00,39,9.70
2016,10,23,00,40,9.80
2016,10,23,00,41,9.90
2016,10,23,00,42,9.90
2016,10,23,00,43,9.90
2016,10,23,00,44,9.90
2016,10,23,00,45,9.90
2016,10,23,00,46,9.90
2016,10,23,00,47,9.90
2016,10,23,00,48,10.00
2016,10,23,00,49,10.00
2016,10,23,00,50,10.00
2016,10,23,00,51,10.10
2016,10,23,00,52,10.10
2016,10,23,00,53,10.10
2016,10,23,00,54,10.20
2016,10,23,00,55,10.20
2016,10,23,00,56,10.20
2016,10,23,00,57,10.30
2016,10,23,00,58,10.30
2016,10,23,00,59,10.30
2016,10,23,01,00,10.40
2016,10,23,01,01,10.40
2016,10,23,01,02,10.50
2016,10,23,01,03,10.50
2016,10,23,01,04,10.60
2016,10,23,01,05,10.70
2016,10,23,01,06,10.80
2016,10,23,01,07,10.90
2016,10,23,01,08,11.00
2016,10,23,01,09,11.20
2016,10,23,01,10,11.30
2016,10,23,01,11,11.50
2016,10,23,01,12,11.70
2016,10,23,01,13,11.80
2016,10,23,01,14,11.80
2016,10,23,01,15,11.90
2016,10,23,01,16,11.90
2016,10,23,01,17,11.90
2016,10,23,01,18,12.00
2016,10,23,01,19,12.00
2016,10,23,01,20,12.10
2016,10,23,01,21,12.20
2016,10,23,01,22,12.20
2016,10,23,01,23,12.20
2016,10,23,01,24,12.20
2016,10,23,01,25,12.20
2016,10,23,01,26,12.20
2016,10,23,01,27,12.20
2016,10,23,01,28,12.20
2016,10,23,01,29,12.20
2016,10,23,01,30,12.20
2016,10,23,01,31,12.20
2016,10,23,01,32,12.10
2016,10,23,01,33,12.10
2016,10,23,01,34,12.10
2016,10,23,01,35,12.10
2016,10,23,01,36,12.10
2016,10,23,01,37,12.20
2016,10,23,01,38,12.20
2016,10,23,01,39,12.30
2016,10,23,01,40,12.30
2016,10,23,01,41,12.30
2016,10,23,01,42,12.30
2016,10,23,01,43,12.30
2016,10,23,01,44,12.30
2016,10,23,01,45,12.30
2016,10,23,01,46,12.30
2016,10,23,01,47,12.30
2016,10,23,01,48,12.30
2016,10,23,01,49,12.30
2016,10,23,01,50,12.30
2016,10,23,01,51,12.30
2016,10,23,01,52,12.30
2016,10,23,01,53,12.30
2016,10,23,01,54,12.30
2016,10,23,01,55,12.30
2016,10,23,01,56,12.30
2016,10,23,01,57,12.30
2016,10,23,01,58,12.30
2016,10,23,01,59,12.30
2016,10,23,02,00,12.20
2016,10,23,02,01,12.20
2016,10,23,02,02,12.20
2016,10,23,02,03,12.20
2016,10,23,02,04,12.20
2016,10,23,02,05,12.20
2016,10,23,02,06,12.20
2016,10,23,02,07,12.20
2016,10,23,02,08,12.20
2016,10,23,02,09,12.20
2016,10,23,02,10,12.20
2016,10,23,02,11,12.20
2016,10,23,02,12,12.20
2016,10,23,02,13,12.20
2016,10,23,02,14,12.20
2016,10,23,02,15,12.30
2016,10,23,02,16,12.30
2016,10,23,02,17,12.30
2016,10,23,02,18,12.30
2016,10,23,02,19,12.20
2016,10,23,02,20,12.20
2016,10,23,02,21,12.20
2016,10,23,02,22,12.20
2016,10,23,02,23,12.20
2016,10,23,02,24,12.30
2016,10,23,02,25,12.30
2016,10,23,02,26,12.30
2016,10,23,02,27,12.30
2016,10,23,02,28,12.30
2016,10,23,02,29,12.30
2016,10,23,02,30,12.30
2016,10,23,02,31,12.30
2016,10,23,02,32,12.30
2016,10,23,02,33,12.30
2016,10,23,02,34,12.20
2016,10,23,02,35,12.20
2016,10,23,02,36,12.20
2016,10,23,02,37,12.20
2016,10,23,02,38,12.20
2016,10,23,02,39,12.20
2016,10,23,02,40,12.20
2016,10,23,02,41,12.20
2016,10,23,02,42,12.20
2016,10,23,02,43,12.20
2016,10,23,02,44,12.20
2016,10,23,02,45,12.20
2016,10,23,02,46,12.20
2016,10,23,02,47,12.10
2016,10,23,02,48,12.10
2016,10,23,02,49,12.10
2016,10,23,02,50,12.10
2016,10,23,02,51,12.10
2016,10,23,02,52,12.10
2016,10,23,02,53,12.10
2016,10,23,02,54,12.10
2016,10,23,02,55,12.00
2016,10,23,02,56,12.00
2016,10,23,02,57,12.00
2016,10,23,02,58,12.00
2016,10,23,02,59,11.90
2016,10,23,03,00,12.00
2016,10,23,03,01,12.00
2016,10,23,03,02,11.90
2016,10,23,03,03,11.90
2016,10,23,03,04,11.90
2016,10,23,03,05,11.90
2016,10,23,03,06,11.90
2016,10,23,03,07,11.90
2016,10,23,03,08,11.90
2016,10,23,03,09,11.90
2016,10,23,03,10,11.90
2016,10,23,03,11,11.90
2016,10,23,03,12,11.80
2016,10,23,03,13,11.90
2016,10,23,03,14,11.90
2016,10,23,03,15,11.80
2016,10,23,03,16,11.80
2016,10,23,03,17,11.80
2016,10,23,03,18,11.80
2016,10,23,03,19,11.80
2016,10,23,03,20,11.80
2016,10,23,03,21,11.80
2016,10,23,03,22,11.80
2016,10,23,03,23,11.80
2016,10,23,03,24,11.80
2016,10,23,03,25,11.80
2016,10,23,03,26,11.80
2016,10,23,03,27,11.80
2016,10,23,03,28,11.80
2016,10,23,03,29,11.80
2016,10,23,03,30,11.80
2016,10,23,03,31,11.80
2016,10,23,03,32,11.80
2016,10,23,03,33,11.80
2016,10,23,03,34,11.80
2016,10,23,03,35,11.80
2016,10,23,03,36,11.80
2016,10,23,03,37,11.80
2016,10,23,03,38,11.80
2016,10,23,03,39,11.70
2016,10,23,03,40,11.70
2016,10,23,03,41,11.70
2016,10,23,03,42,11.70
2016,10,23,03,43,11.70
2016,10,23,03,44,11.70
2016,10,23,03,45,11.70
2016,10,23,03,46,11.70
2016,10,23,03,47,11.70
2016,10,23,03,48,11.70
2016,10,23,03,49,11.70
2016,10,23,03,50,11.70
2016,10,23,03,51,11.70
2016,10,23,03,52,11.70
2016,10,23,03,53,11.70
2016,10,23,03,54,11.70
2016,10,23,03,55,11.70
2016,10,23,03,56,11.70
2016,10,23,03,57,11.70
2016,10,23,03,58,11.70
2016,10,23,03,59,11.70
2016,10,23,04,00,11.70
2016,10,23,04,01,11.70
2016,10,23,04,02,11.70
2016,10,23,04,03,11.70
2016,10,23,04,04,11.70
2016,10,23,04,05,11.70
2016,10,23,04,06,11.70
2016,10,23,04,07,11.70
2016,10,23,04,08,11.70
2016,10,23,04,09,11.70
2016,10,23,04,10,11.70
2016,10,23,04,11,11.70
2016,10,23,04,12,11.70
2016,10,23,04,13,11.70
2016,10,23,04,14,11.70
2016,10,23,04,15,11.70
2016,10,23,04,16,11.70
2016,10,23,04,17,11.80
2016,10,23,04,18,11.80
2016,10,23,04,19,11.80
2016,10,23,04,20,11.80
2016,10,23,04,21,11.80
2016,10,23,04,22,11.70
2016,10,23,04,23,11.70
2016,10,23,04,24,11.80
2016,10,23,04,25,11.70
2016,10,23,04,26,11.70
2016,10,23,04,27,11.70
2016,10,23,04,28,11.70
2016,10,23,04,29,11.70
2016,10,23,04,30,11.80
2016,10,23,04,31,11.80
2016,10,23,04,32,11.80
2016,10,23,04,33,11.80
2016,10,23,04,34,11.80
2016,10,23,04,35,11.80
2016,10,23,04,36,11.80
2016,10,23,04,37,11.80
2016,10,23,04,38,11.80
2016,10,23,04,39,11.80
2016,10,23,04,40,11.80
2016,10,23,04,41,11.80
2016,10,23,04,42,11.80
2016,10,23,04,43,11.70
2016,10,23,04,44,11.70
2016,10,23,04,45,11.70
2016,10,23,04,46,11.70
2016,10,23,04,47,11.70
2016,10,23,04,48,11.70
2016,10,23,04,49,11.70
2016,10,23,04,50,11.70
2016,10,23,04,51,11.70
2016,10,23,04,52,11.70
2016,10,23,04,53,11.70
2016,10,23,04,54,11.70
2016,10,23,04,55,11.70
2016,10,23,04,56,11.70
2016,10,23,04,57,11.70
2016,10,23,04,58,11.70
2016,10,23,04,59,11.70
2016,10,23,05,00,11.70
2016,10,23,05,01,11.70
2016,10,23,05,02,11.70
2016,10,23,05,03,11.70
2016,10,23,05,04,11.70
2016,10,23,05,05,11.70
2016,10,23,05,06,11.60
2016,10,23,05,07,11.60
2016,10,23,05,08,11.60
2016,10,23,05,09,11.60
2016,10,23,05,10,11.60
2016,10,23,05,11,11.60
2016,10,23,05,12,11.70
2016,10,23,05,13,11.70
2016,10,23,05,14,11.70
2016,10,23,05,15,11.70
2016,10,23,05,16,11.70
2016,10,23,05,17,11.70
2016,10,23,05,18,11.70
2016,10,23,05,19,11.70
2016,10,23,05,20,11.70
2016,10,23,05,21,11.70
2016,10,23,05,22,11.70
2016,10,23,05,23,11.70
2016,10,23,05,24,11.70
2016,10,23,05,25,11.70
2016,10,23,05,26,11.70
2016,10,23,05,27,11.70
2016,10,23,05,28,11.70
2016,10,23,05,29,11.70
2016,10,23,05,30,11.70
2016,10,23,05,31,11.70
2016,10,23,05,32,11.70
2016,10,23,05,33,11.70
2016,10,23,05,34,11.70
2016,10,23,05,35,11.70
2016,10,23,05,36,11.70
2016,10,23,05,37,11.70
2016,10,23,05,38,11.70
2016,10,23,05,39,11.60
2016,10,23,05,40,11.60
2016,10,23,05,41,11.60
2016,10,23,05,42,11.60
2016,10,23,05,43,11.60
2016,10,23,05,44,11.60
2016,10,23,05,45,11.60
2016,10,23,05,46,11.60
2016,10,23,05,47,11.60
2016,10,23,05,48,11.50
2016,10,23,05,49,11.50
2016,10,23,05,50,11.60
2016,10,23,05,51,11.50
2016,10,23,05,52,11.50
2016,10,23,05,53,11.50
2016,10,23,05,54,11.50
2016,10,23,05,55,11.50
2016,10,23,05,56,11.50
2016,10,23,05,57,11.40
2016,10,23,05,58,11.40
2016,10,23,05,59,11.40
2016,10,23,06,00,11.40
2016,10,23,06,01,11.40
2016,10,23,06,02,11.50
2016,10,23,06,03,11.50
2016,10,23,06,04,11.50
2016,10,23,06,05,11.50
2016,10,23,06,06,11.50
2016,10,23,06,07,11.40
2016,10,23,06,08,11.40
2016,10,23,06,09,11.40
2016,10,23,06,10,11.40
2016,10,23,06,11,11.40
2016,10,23,06,12,11.40
2016,10,23,06,13,11.40
2016,10,23,06,14,11.40
2016,10,23,06,15,11.40
2016,10,23,06,16,11.40
2016,10,23,06,17,11.40
2016,10,23,06,18,11.40
2016,10,23,06,19,11.40
2016,10,23,06,20,11.40
2016,10,23,06,21,11.40
2016,10,23,06,22,11.40
2016,10,23,06,23,11.30
2016,10,23,06,24,11.30
2016,10,23,06,25,11.30
2016,10,23,06,26,11.30
2016,10,23,06,27,11.30
2016,10,23,06,28,11.30
2016,10,23,06,29,11.30
2016,10,23,06,30,11.30
2016,10,23,06,31,11.30
2016,10,23,06,32,11.30
2016,10,23,06,33,11.30
2016,10,23,06,34,11.20
2016,10,23,06,35,11.20
2016,10,23,06,36,11.20
2016,10,23,06,37,11.20
2016,10,23,06,38,11.20
2016,10,23,06,39,11.20
2016,10,23,06,40,11.10
2016,10,23,06,41,11.10
2016,10,23,06,42,11.10
2016,10,23,06,43,11.10
2016,10,23,06,44,11.10
2016,10,23,06,45,11.10
2016,10,23,06,46,11.10
2016,10,23,06,47,11.00
2016,10,23,06,48,11.00
2016,10,23,06,49,10.90
2016,10,23,06,50,10.90
2016,10,23,06,51,10.80
2016,10,23,06,52,10.70
2016,10,23,06,53,10.70
2016,10,23,06,54,10.70
2016,10,23,06,55,10.70
2016,10,23,06,56,10.70
2016,10,23,06,57,10.70
2016,10,23,06,58,10.70
2016,10,23,06,59,10.70
2016,10,23,07,00,10.70
2016,10,23,07,01,10.70
2016,10,23,07,02,10.70
2016,10,23,07,03,10.70
2016,10,23,07,04,10.60
2016,10,23,07,05,10.60
2016,10,23,07,06,10.60
2016,10,23,07,07,10.50
2016,10,23,07,08,10.50
2016,10,23,07,09,10.50
2016,10,23,07,10,10.50
2016,10,23,07,11,10.40
2016,10,23,07,12,10.40
2016,10,23,07,13,10.40
2016,10,23,07,14,10.40
2016,10,23,07,15,10.40
2016,10,23,07,16,10.40
2016,10,23,07,17,10.40
2016,10,23,07,18,10.40
2016,10,23,07,19,10.40
2016,10,23,07,20,10.30
2016,10,23,07,21,10.30
2016,10,23,07,22,10.30
2016,10,23,07,23,10.30
2016,10,23,07,24,10.30
2016,10,23,07,25,10.30
2016,10,23,07,26,10.30
2016,10,23,07,27,10.20
2016,10,23,07,28,10.20
2016,10,23,07,29,10.20
2016,10,23,07,30,10.20
2016,10,23,07,31,10.10
2016,10,23,07,32,10.10
2016,10,23,07,33,10.10
2016,10,23,07,34,10.10
2016,10,23,07,35,10.10
2016,10,23,07,36,10.00
2016,10,23,07,37,10.00
2016,10,23,07,38,10.00
2016,10,23,07,39,10.00
2016,10,23,07,40,9.90
2016,10,23,07,41,9.90
2016,10,23,07,42,9.90
2016,10,23,07,43,9.90
2016,10,23,07,44,9.90
2016,10,23,07,45,9.80
2016,10,23,07,46,9.80
2016,10,23,07,47,9.80
2016,10,23,07,48,9.80
2016,10,23,07,49,9.80
2016,10,23,07,50,9.80
2016,10,23,07,51,9.70
2016,10,23,07,52,9.70
2016,10,23,07,53,9.70
2016,10,23,07,54,9.70
2016,10,23,07,55,9.70
2016,10,23,07,56,9.70
2016,10,23,07,57,9.60
2016,10,23,07,58,9.60
2016,10,23,07,59,9.60
2016,10,23,08,00,9.60
2016,10,23,08,01,9.50
2016,10,23,08,02,9.50
2016,10,23,08,03,9.40
2016,10,23,08,04,9.40
2016,10,23,08,05,9.40
2016,10,23,08,06,9.40
2016,10,23,08,07,9.30
2016,10,23,08,08,9.30
2016,10,23,08,09,9.30
2016,10,23,08,10,9.30
2016,10,23,08,11,9.30
2016,10,23,08,12,9.20
2016,10,23,08,13,9.20
2016,10,23,08,14,9.20
2016,10,23,08,15,9.20
2016,10,23,08,16,9.20
2016,10,23,08,17,9.10
2016,10,23,08,18,9.10
2016,10,23,08,19,9.10
2016,10,23,08,20,9.10
2016,10,23,08,21,9.00
2016,10,23,08,22,9.00
2016,10,23,08,23,8.90
2016,10,23,08,24,8.90
2016,10,23,08,25,8.80
2016,10,23,08,26,8.80
2016,10,23,08,27,8.80
2016,10,23,08,28,8.80
2016,10,23,08,29,8.80
2016,10,23,08,30,8.90
2016,10,23,08,31,8.90
2016,10,23,08,32,8.90
2016,10,23,08,33,9.00
2016,10,23,08,34,9.10
2016,10,23,08,35,9.10
2016,10,23,08,36,9.20
2016,10,23,08,37,9.30
2016,10,23,08,38,9.30
2016,10,23,08,39,9.30
2016,10,23,08,40,9.30
2016,10,23,08,41,9.30
2016,10,23,08,42,9.40
2016,10,23,08,43,9.40
2016,10,23,08,44,9.40
2016,10,23,08,45,9.40
2016,10,23,08,46,9.30
2016,10,23,08,47,9.30
2016,10,23,08,48,9.30
2016,10,23,08,49,9.30
2016,10,23,08,50,9.30
2016,10,23,08,51,9.30
2016,10,23,08,52,9.40
2016,10,23,08,53,9.40
2016,10,23,08,54,9.40
2016,10,23,08,55,9.50
2016,10,23,08,56,9.50
2016,10,23,08,57,9.50
2016,10,23,08,58,9.50
2016,10,23,08,59,9.50
2016,10,23,09,00,9.50
2016,10,23,09,01,9.60
2016,10,23,09,02,9.60
2016,10,23,09,03,9.60
2016,10,23,09,04,9.70
2016,10,23,09,05,9.80
2016,10,23,09,06,9.80
2016,10,23,09,07,9.90
2016,10,23,09,08,10.00
2016,10,23,09,09,10.00
2016,10,23,09,10,10.10
2016,10,23,09,11,10.10
2016,10,23,09,12,10.20
2016,10,23,09,13,10.30
2016,10,23,09,14,10.30
2016,10,23,09,15,10.40
2016,10,23,09,16,10.40
2016,10,23,09,17,10.50
2016,10,23,09,18,10.50
2016,10,23,09,19,10.60
2016,10,23,09,20,10.70
2016,10,23,09,21,10.80
2016,10,23,09,22,11.00
2016,10,23,09,23,11.20
2016,10,23,09,24,11.20
2016,10,23,09,25,11.30
2016,10,23,09,26,11.30
2016,10,23,09,27,11.30
2016,10,23,09,28,11.40
2016,10,23,09,29,11.40
2016,10,23,09,30,11.40
2016,10,23,09,31,11.40
2016,10,23,09,32,11.50
2016,10,23,09,33,11.50
2016,10,23,09,34,11.50
2016,10,23,09,35,11.50
2016,10,23,09,36,11.50
2016,10,23,09,37,11.60
2016,10,23,09,38,11.60
2016,10,23,09,39,11.60
2016,10,23,09,40,11.60
2016,10,23,09,41,11.70
2016,10,23,09,42,11.70
2016,10,23,09,43,11.70
2016,10,23,09,44,11.70
2016,10,23,09,45,11.70
2016,10,23,09,46,11.70
2016,10,23,09,47,11.70
2016,10,23,09,48,11.70
2016,10,23,09,49,11.70
2016,10,23,09,50,11.70
2016,10,23,09,51,11.70
2016,10,23,09,52,11.70
2016,10,23,09,53,11.70
2016,10,23,09,54,11.70
2016,10,23,09,55,11.70
2016,10,23,09,56,11.70
2016,10,23,09,57,11.70
2016,10,23,09,58,11.80
2016,10,23,09,59,11.80
2016,10,23,10,00,11.90
2016,10,23,10,01,11.90
2016,10,23,10,02,11.90
2016,10,23,10,03,12.00
2016,10,23,10,04,12.00
2016,10,23,10,05,12.10
2016,10,23,10,06,12.10
2016,10,23,10,07,12.20
2016,10,23,10,08,12.20
2016,10,23,10,09,12.20
2016,10,23,10,10,12.20
2016,10,23,10,11,12.30
2016,10,23,10,12,12.30
2016,10,23,10,13,12.30
2016,10,23,10,14,12.20
2016,10,23,10,15,12.20
2016,10,23,10,16,12.20
2016,10,23,10,17,12.20
2016,10,23,10,18,12.20
2016,10,23,10,19,12.20
2016,10,23,10,20,12.20
2016,10,23,10,21,12.10
2016,10,23,10,22,12.10
2016,10,23,10,23,12.10
2016,10,23,10,24,12.00
2016,10,23,10,25,12.00
2016,10,23,10,26,12.00
2016,10,23,10,27,12.00
2016,10,23,10,28,12.10
2016,10,23,10,29,12.10
2016,10,23,10,30,12.10
2016,10,23,10,31,12.10
2016,10,23,10,32,12.20
2016,10,23,10,33,12.20
2016,10,23,10,34,12.30
2016,10,23,10,35,12.30
2016,10,23,10,36,12.30
2016,10,23,10,37,12.30
2016,10,23,10,38,12.40
2016,10,23,10,39,12.40
2016,10,23,10,40,12.40
2016,10,23,10,41,12.30
2016,10,23,10,42,12.30
2016,10,23,10,43,12.20
2016,10,23,10,44,12.20
2016,10,23,10,45,12.20
2016,10,23,10,46,12.20
2016,10,23,10,47,12.10
2016,10,23,10,48,12.10
2016,10,23,10,49,12.00
2016,10,23,10,50,12.00
2016,10,23,10,51,12.00
2016,10,23,10,52,12.00
2016,10,23,10,53,12.00
2016,10,23,10,54,12.10
2016,10,23,10,55,12.10
2016,10,23,10,56,12.20
2016,10,23,10,57,12.20
2016,10,23,10,58,12.20
2016,10,23,10,59,12.30
2016,10,23,11,00,12.30
2016,10,23,11,01,12.40
2016,10,23,11,02,12.50
2016,10,23,11,03,12.50
2016,10,23,11,04,12.60
2016,10,23,11,05,12.60
2016,10,23,11,06,12.60
2016,10,23,11,07,12.70
2016,10,23,11,08,12.70
2016,10,23,11,09,12.60
2016,10,23,11,10,12.50
2016,10,23,11,11,12.40
2016,10,23,11,12,12.30
2016,10,23,11,13,12.30
2016,10,23,11,14,12.30
2016,10,23,11,15,12.30
2016,10,23,11,16,12.30
2016,10,23,11,17,12.30
2016,10,23,11,18,12.40
2016,10,23,11,19,12.30
2016,10,23,11,20,12.30
2016,10,23,11,21,12.30
2016,10,23,11,22,12.20
2016,10,23,11,23,12.20
2016,10,23,11,24,12.10
2016,10,23,11,25,12.20
2016,10,23,11,26,12.20
2016,10,23,11,27,12.20
2016,10,23,11,28,12.20
2016,10,23,11,29,12.10
2016,10,23,11,30,12.10
2016,10,23,11,31,12.10
2016,10,23,11,32,12.20
2016,10,23,11,33,12.20
2016,10,23,11,34,12.20
2016,10,23,11,35,12.20
2016,10,23,11,36,12.10
2016,10,23,11,37,12.10
2016,10,23,11,38,12.10
2016,10,23,11,39,12.10
2016,10,23,11,40,12.20
2016,10,23,11,41,12.20
2016,10,23,11,42,12.20
2016,10,23,11,43,12.20
2016,10,23,11,44,12.20
2016,10,23,11,45,12.20
2016,10,23,11,46,12.30
2016,10,23,11,47,12.30
2016,10,23,11,48,12.40
2016,10,23,11,49,12.50
2016,10,23,11,50,12.60
2016,10,23,11,51,12.60
2016,10,23,11,52,12.60
2016,10,23,11,53,12.60
2016,10,23,11,54,12.60
2016,10,23,11,55,12.60
2016,10,23,11,56,12.50
2016,10,23,11,57,12.50
2016,10,23,11,58,12.50
2016,10,23,11,59,12.60
2016,10,23,12,00,12.50
2016,10,23,12,01,12.50
2016,10,23,12,02,12.50
2016,10,23,12,03,12.50
2016,10,23,12,04,12.50
2016,10,23,12,05,12.40
2016,10,23,12,06,12.40
2016,10,23,12,07,12.40
2016,10,23,12,08,12.50
2016,10,23,12,09,12.50
2016,10,23,12,10,12.60
2016,10,23,12,11,12.60
2016,10,23,12,12,12.70
2016,10,23,12,13,12.70
2016,10,23,12,14,12.70
2016,10,23,12,15,12.70
2016,10,23,12,16,12.70
2016,10,23,12,17,12.80
2016,10,23,12,18,12.80
2016,10,23,12,19,12.80
2016,10,23,12,20,12.90
2016,10,23,12,21,12.90
2016,10,23,12,22,13.00
2016,10,23,12,23,13.00
2016,10,23,12,24,13.00
2016,10,23,12,25,12.90
2016,10,23,12,26,12.80
2016,10,23,12,27,12.80
2016,10,23,12,28,12.90
2016,10,23,12,29,12.90
2016,10,23,12,30,12.90
2016,10,23,12,31,12.90
2016,10,23,12,32,12.90
2016,10,23,12,33,12.90
2016,10,23,12,34,12.90
2016,10,23,12,35,12.80
2016,10,23,12,36,12.80
2016,10,23,12,37,12.70
2016,10,23,12,38,12.70
2016,10,23,12,39,12.60
2016,10,23,12,40,12.50
2016,10,23,12,41,12.50
2016,10,23,12,42,12.40
2016,10,23,12,43,12.40
2016,10,23,12,44,12.50
2016,10,23,12,45,12.50
2016,10,23,12,46,12.50
2016,10,23,12,47,12.50
2016,10,23,12,48,12.50
2016,10,23,12,49,12.60
2016,10,23,12,50,12.70
2016,10,23,12,51,12.80
2016,10,23,12,52,12.80
2016,10,23,12,53,12.90
2016,10,23,12,54,12.90
2016,10,23,12,55,12.90
2016,10,23,12,56,13.00
2016,10,23,12,57,13.00
2016,10,23,12,58,13.10
2016,10,23,12,59,13.20
2016,10,23,13,00,13.30
2016,10,23,13,01,13.30
2016,10,23,13,02,13.30
2016,10,23,13,03,13.30
2016,10,23,13,04,13.30
2016,10,23,13,05,13.30
2016,10,23,13,06,13.30
2016,10,23,13,07,13.30
2016,10,23,13,08,13.30
2016,10,23,13,09,13.30
2016,10,23,13,10,13.20
2016,10,23,13,11,13.20
2016,10,23,13,12,13.10
2016,10,23,13,13,13.00
2016,10,23,13,14,13.00
2016,10,23,13,15,12.90
2016,10,23,13,16,12.90
2016,10,23,13,17,12.90
2016,10,23,13,18,12.90
2016,10,23,13,19,12.90
2016,10,23,13,20,12.90
2016,10,23,13,21,13.00
2016,10,23,13,22,13.00
2016,10,23,13,23,13.00
2016,10,23,13,24,13.10
2016,10,23,13,25,13.20
2016,10,23,13,26,13.20
2016,10,23,13,27,13.20
2016,10,23,13,28,13.10
2016,10,23,13,29,13.10
2016,10,23,13,30,13.10
2016,10,23,13,31,13.10
2016,10,23,13,32,13.10
2016,10,23,13,33,13.10
2016,10,23,13,34,13.20
2016,10,23,13,35,13.20
2016,10,23,13,36,13.10
2016,10,23,13,37,13.10
2016,10,23,13,38,13.10
2016,10,23,13,39,13.10
2016,10,23,13,40,13.20
2016,10,23,13,41,13.20
2016,10,23,13,42,13.20
2016,10,23,13,43,13.30
2016,10,23,13,44,13.30
2016,10,23,13,45,13.30
2016,10,23,13,46,13.20
2016,10,23,13,47,13.20
2016,10,23,13,48,13.20
2016,10,23,13,49,13.20
2016,10,23,13,50,13.20
2016,10,23,13,51,13.20
2016,10,23,13,52,13.20
2016,10,23,13,53,13.30
2016,10,23,13,54,13.30
2016,10,23,13,55,13.30
2016,10,23,13,56,13.20
2016,10,23,13,57,13.20
2016,10,23,13,58,13.20
2016,10,23,13,59,13.10
2016,10,23,14,00,13.10
2016,10,23,14,01,13.00
2016,10,23,14,02,13.00
2016,10,23,14,03,13.00
2016,10,23,14,04,13.10
2016,10,23,14,05,13.00
2016,10,23,14,06,12.90
2016,10,23,14,07,12.80
2016,10,23,14,08,12.80
2016,10,23,14,09,12.70
2016,10,23,14,10,12.70
2016,10,23,14,11,12.70
2016,10,23,14,12,12.70
2016,10,23,14,13,12.70
2016,10,23,14,14,12.70
2016,10,23,14,15,12.70
2016,10,23,14,16,12.70
2016,10,23,14,17,12.80
2016,10,23,14,18,12.80
2016,10,23,14,19,12.80
2016,10,23,14,20,12.90
2016,10,23,14,21,12.90
2016,10,23,14,22,13.00
2016,10,23,14,23,13.00
2016,10,23,14,24,13.10
2016,10,23,14,25,13.10
2016,10,23,14,26,13.10
2016,10,23,14,27,13.20
2016,10,23,14,28,13.20
2016,10,23,14,29,13.20
2016,10,23,14,30,13.20
2016,10,23,14,31,13.30
2016,10,23,14,32,13.30
2016,10,23,14,33,13.30
2016,10,23,14,34,13.30
2016,10,23,14,35,13.20
2016,10,23,14,36,13.20
2016,10,23,14,37,13.30
2016,10,23,14,38,13.30
2016,10,23,14,39,13.30
2016,10,23,14,40,13.30
2016,10,23,14,41,13.30
2016,10,23,14,42,13.20
2016,10,23,14,43,13.20
2016,10,23,14,44,13.20
2016,10,23,14,45,13.30
2016,10,23,14,46,13.30
2016,10,23,14,47,13.20
2016,10,23,14,48,13.30
2016,10,23,14,49,13.20
2016,10,23,14,50,13.30
2016,10,23,14,51,13.30
2016,10,23,14,52,13.30
2016,10,23,14,53,13.30
2016,10,23,14,54,13.30
2016,10,23,14,55,13.40
2016,10,23,14,56,13.40
2016,10,23,14,57,13.40
2016,10,23,14,58,13.40
2016,10,23,14,59,13.40
2016,10,23,15,00,13.40
2016,10,23,15,01,13.50
2016,10,23,15,02,13.50
2016,10,23,15,03,13.50
2016,10,23,15,04,13.60
2016,10,23,15,05,13.60
2016,10,23,15,06,13.60
2016,10,23,15,07,13.60
2016,10,23,15,08,13.60
2016,10,23,15,09,13.60
2016,10,23,15,10,13.60
2016,10,23,15,11,13.60
2016,10,23,15,12,13.60
2016,10,23,15,13,13.60
2016,10,23,15,14,13.60
2016,10,23,15,15,13.60
2016,10,23,15,16,13.60
2016,10,23,15,17,13.60
2016,10,23,15,18,13.50
2016,10,23,15,19,13.50
2016,10,23,15,20,13.50
2016,10,23,15,21,13.40
2016,10,23,15,22,13.40
2016,10,23,15,23,13.40
2016,10,23,15,24,13.40
2016,10,23,15,25,13.40
2016,10,23,15,26,13.40
2016,10,23,15,27,13.40
2016,10,23,15,28,13.40
2016,10,23,15,29,13.50
2016,10,23,15,30,13.50
2016,10,23,15,31,13.50
2016,10,23,15,32,13.50
2016,10,23,15,33,13.50
2016,10,23,15,34,13.50
2016,10,23,15,35,13.50
2016,10,23,15,36,13.50
2016,10,23,15,37,13.50
2016,10,23,15,38,13.50
2016,10,23,15,39,13.50
2016,10,23,15,40,13.50
2016,10,23,15,41,13.50
2016,10,23,15,42,13.50
2016,10,23,15,43,13.50
2016,10,23,15,44,13.50
2016,10,23,15,45,13.50
2016,10,23,15,46,13.60
2016,10,23,15,47,13.60
2016,10,23,15,48,13.60
2016,10,23,15,49,13.60
2016,10,23,15,50,13.70
2016,10,23,15,51,13.70
2016,10,23,15,52,13.70
2016,10,23,15,53,13.70
2016,10,23,15,54,13.70
2016,10,23,15,55,13.80
2016,10,23,15,56,13.80
2016,10,23,15,57,13.80
2016,10,23,15,58,13.80
2016,10,23,15,59,13.90
2016,10,23,16,00,13.90
2016,10,23,16,01,13.90
2016,10,23,16,02,13.90
2016,10,23,16,03,13.90
2016,10,23,16,04,13.90
2016,10,23,16,05,13.90
2016,10,23,16,06,13.90
2016,10,23,16,07,13.90
2016,10,23,16,08,13.90
2016,10,23,16,09,13.90
2016,10,23,16,10,13.80
2016,10,23,16,11,13.90
2016,10,23,16,12,13.80
2016,10,23,16,13,13.80
2016,10,23,16,14,13.80
2016,10,23,16,15,13.80
2016,10,23,16,16,13.80
2016,10,23,16,17,13.70
2016,10,23,16,18,13.70
2016,10,23,16,19,13.70
2016,10,23,16,20,13.70
2016,10,23,16,21,13.60
2016,10,23,16,22,13.60
2016,10,23,16,23,13.60
2016,10,23,16,24,13.70
2016,10,23,16,25,13.60
2016,10,23,16,26,13.70
2016,10,23,16,27,13.70
2016,10,23,16,28,13.70
2016,10,23,16,29,13.70
2016,10,23,16,30,13.70
2016,10,23,16,31,13.70
2016,10,23,16,32,13.70
2016,10,23,16,33,13.70
2016,10,23,16,34,13.70
2016,10,23,16,35,13.70
2016,10,23,16,36,13.70
2016,10,23,16,37,13.60
2016,10,23,16,38,13.60
2016,10,23,16,39,13.60
2016,10,23,16,40,13.60
2016,10,23,16,41,13.60
2016,10,23,16,42,13.60
2016,10,23,16,43,13.50
2016,10,23,16,44,13.50
2016,10,23,16,45,13.50
2016,10,23,16,46,13.50
2016,10,23,16,47,13.50
2016,10,23,16,48,13.50
2016,10,23,16,49,13.50
2016,10,23,16,50,13.40
2016,10,23,16,51,13.40
2016,10,23,16,52,13.40
2016,10,23,16,53,13.40
2016,10,23,16,54,13.40
2016,10,23,16,55,13.40
2016,10,23,16,56,13.40
2016,10,23,16,57,13.40
2016,10,23,16,58,13.40
2016,10,23,16,59,13.40
2016,10,23,17,00,13.40
2016,10,23,17,01,13.40
2016,10,23,17,02,13.40
2016,10,23,17,03,13.40
2016,10,23,17,04,13.30
2016,10,23,17,05,13.30
2016,10,23,17,06,13.30
2016,10,23,17,07,13.30
2016,10,23,17,08,13.30
2016,10,23,17,09,13.30
2016,10,23,17,10,13.30
2016,10,23,17,11,13.30
2016,10,23,17,12,13.30
2016,10,23,17,13,13.30
2016,10,23,17,14,13.30
2016,10,23,17,15,13.30
2016,10,23,17,16,13.30
2016,10,23,17,17,13.30
2016,10,23,17,18,13.30
2016,10,23,17,19,13.30
2016,10,23,17,20,13.30
2016,10,23,17,21,13.30
2016,10,23,17,22,13.30
2016,10,23,17,23,13.30
2016,10,23,17,24,13.30
2016,10,23,17,25,13.30